Miscellaneous Local Product
Issued by NWS Hastings, NE

Home | Current Version | Previous Version | Graphics & Text | Print | Product List | Glossary On
Versions: 1 2 3 4 5 6 7 8 9 10 11 12 13 14 15 16 17 18 19 20 21 22 23 24 25 26 27 28 29 30 31 32 33 34 35 36 37 38 39 40 41 42 43 44 45 46 47 48 49 50
062
AXUS43 KGID 300202
MISGRI

GID CWA HOURLY WEATHER ROUNDUP
NATIONAL WEATHER SERVICE HASTINGS NE
900 PM CDT FRI APR 29 2016

NOTE: "FAIR" INDICATES FEW OR NO CLOUDS BELOW 12,000 FEET WITH NO
SIGNIFICANT WEATHER AND/OR OBSTRUCTIONS TO VISIBILITY.

...SOUTH CENTRAL NEBRASKA...

CITY           SKY/WX    TMP DP  RH WIND       PRES   REMARKS
GRAND ISLAND   CLOUDY    43  40  89 NE22G28   29.89F
HASTINGS       CLOUDY    43  40  89 NE20G28   29.85F
KEARNEY        CLOUDY    43  37  81 NE23G29   29.87F
ORD            CLOUDY    42  39  89 NE14      29.94F
YORK           CLOUDY    45  41  87 NE16G22   29.88F
AURORA         CLOUDY    44  42  95 NE24G31   29.87F
LEXINGTON      CLOUDY    41  38  91 NE20G28   29.86S
HOLDREGE       CLOUDY    41  39  93 NE26      29.83F
HEBRON         CLOUDY    48  44  88 E20G28    29.82F

...NEBRASKA PANHANDLE...

CITY           SKY/WX    TMP DP  RH WIND       PRES   REMARKS
CHADRON        CLOUDY    41  35  79 NE13      29.98S
ALLIANCE       LGT SNOW  33  33 100 NE8       29.94S FOG     WCI  26
SCOTTSBLUFF    LGT SNOW  34  32  92 CALM      29.96R FOG
SIDNEY         LGT SNOW  33  31  92 N10       29.91S FOG     WCI  25

...WESTERN AND NORTH CENTRAL NEBRASKA...

CITY           SKY/WX    TMP DP  RH WIND       PRES   REMARKS
VALENTINE      CLOUDY    40  38  93 NE14      30.00F WCI  32
AINSWORTH      DRIZZLE   39  38  97 NE14G21   29.99S WCI  31
ONEILL         CLOUDY    42  40  94 NE7       30.02S FOG
BROKEN BOW     CLOUDY    41  39  93 NE20G26   29.91F FOG
IMPERIAL       LGT SNOW  33  32  96 N15       29.90F FOG     WCI  23
NORTH PLATTE   LGT RAIN  40  38  93 NE12      29.90R WCI  33
MCCOOK         HVY RAIN  41  39  93 E8        29.91R FOG

...EASTERN NEBRASKA...

CITY           SKY/WX    TMP DP  RH WIND       PRES   REMARKS
NORFOLK        CLOUDY    44  39  82 E16G23    29.96F
SO SIOUX CITY  CLOUDY    47  39  74 E12       30.02S
TEKAMAH        CLOUDY    47  41  80 E16       29.97F
COLUMBUS       CLOUDY    45  36  70 NE21G26   29.94F
ALBION         CLOUDY    43  40  89 NE14      29.96F
OMAHA EPPLEY   CLOUDY    48  42  80 NE9G17    29.96F
OFFUTT AFB     CLOUDY    48  44  84 NE9G22    29.93F
MILLARD        CLOUDY    49  42  77 E5        29.94F
LINCOLN        CLOUDY    48  43  82 E18G24    29.92F
NEBRASKA CITY  CLOUDY    48  45  89 NE15G24   29.89F
BEATRICE       CLOUDY    48  45  87 E18G24    29.85F
FALLS CITY     CLOUDY    50  46  86 E14G25    29.85F

...NORTHERN KANSAS...

CITY           SKY/WX    TMP DP  RH WIND       PRES   REMARKS
GOODLAND       CLOUDY    32  32 100 N12       29.84S WCI  23
HILL CITY      LGT RAIN  43  41  93 NW8       29.86S FOG
NORTON         RAIN      39  37  93 CALM      29.88R
PHILLIPSBURG   HVY RAIN  45  45 100 CALM      29.86R
SMITH CENTER   CLOUDY    43  43 100 NE17G24   29.80R
BELOIT         CLOUDY    46  45  93 NE15G22   29.76R
HAYS           CLOUDY    46  37  71 W6        29.82S
RUSSELL        LGT RAIN  47  46  97 NE6       29.77R FOG
CONCORDIA      CLOUDY    49  45  86 E17G25    29.77F
SALINA         LGT RAIN  52  49  89 E13G24    29.74R
TOPEKA         CLOUDY    53  49  86 E20G28    29.80R



USA.gov is the U.S. government's official web portal to all federal, state and local government web resources and services.